EW6866 Weather Reports


time (UTC)temp
C
wind
direction
speed
KPH
gust
KPH
rain 1hr
cm
rain 24hr
cm
rain mn
cm
humidity
%
barometer
mb
20260510141504 23 178 0.0 3.2 0.00 0.00 0.00 77 1013.8
20260510140004 23 167 0.0 3.2 0.00 0.00 0.00 81 1013.7
20260510134503 22 171 0.0 3.2 0.00 0.00 0.00 85 1013.7
20260510133004 21 177 0.0 4.8 0.00 0.00 0.00 88 1013.7
20260510131504 20 138 0.0 4.8 0.00 0.00 0.00 93 1013.7
20260510130005 20 167 0.0 4.8 0.00 0.00 0.00 96 1013.6
20260510124503 19 151 0.0 3.2 0.00 0.00 0.00 98 1013.3
20260510123004 19 0 0.0 0.0 0.00 0.00 0.00 98 1013.2
20260510121504 18 135 0.0 1.6 0.00 0.00 0.00 98 1013.1
20260510120004 18 0 0.0 0.0 0.00 0.00 0.00 98 1012.9
20260510114503 18 0 0.0 0.0 0.00 0.00 0.00 99 1012.8
20260510113004 17 0 0.0 0.0 0.00 0.00 0.00 98 1012.8
20260510111504 17 0 0.0 0.0 0.00 0.00 0.00 98 1012.6
20260510110005 17 0 0.0 0.0 0.00 0.00 0.00 98 1012.5
20260510104503 16 0 0.0 0.0 0.00 0.00 0.00 97 1012.2
20260510103003 17 0 0.0 0.0 0.00 0.00 0.00 98 1012.0
20260510101504 16 0 0.0 0.0 0.00 0.00 0.00 97 1011.7
20260510100004 16 0 0.0 0.0 0.00 0.00 0.00 97 1011.6
20260510094504 16 0 0.0 0.0 0.00 0.00 0.00 97 1011.4
20260510093004 17 0 0.0 0.0 0.00 0.00 0.00 97 1011.2
20260510091503 17 0 0.0 0.0 0.00 0.00 0.00 97 1011.2
20260510090004 17 0 0.0 0.0 0.00 0.00 0.00 97 1011.0
20260510084503 17 0 0.0 0.0 0.00 0.00 0.00 97 1011.0
20260510083004 16 0 0.0 0.0 0.00 0.00 0.00 97 1010.9
20260510081504 16 0 0.0 0.0 0.00 0.00 0.00 96 1010.9
20260510080004 17 0 0.0 0.0 0.00 0.00 0.00 97 1010.9
20260510074505 17 0 0.0 0.0 0.00 0.00 0.00 96 1010.9
20260510073005 17 0 0.0 0.0 0.00 0.00 0.00 96 1010.8
20260510071506 17 0 0.0 0.0 0.00 0.00 0.00 97 1010.6
20260510070005 17 0 0.0 0.0 0.00 0.00 0.00 96 1010.6
20260510064505 17 0 0.0 0.0 0.00 0.00 0.00 96 1010.6
20260510063006 17 0 0.0 0.0 0.00 0.00 0.00 96 1010.6
20260510061505 17 0 0.0 0.0 0.00 0.00 0.00 96 1010.7
20260510060006 17 0 0.0 0.0 0.00 0.00 0.00 95 1010.7
20260510054526 17 0 0.0 0.0 0.00 0.00 0.00 95 1010.9
20260510053005 17 0 0.0 0.0 0.00 0.00 0.00 95 1011.0
20260510051505 17 0 0.0 0.0 0.00 0.00 0.00 95 1011.2
20260510050006 17 0 0.0 0.0 0.00 0.00 0.00 94 1011.1
20260510044505 17 0 0.0 0.0 0.00 0.00 0.00 94 1011.1
20260510043005 17 0 0.0 0.0 0.00 0.00 0.00 93 1010.9
20260510041505 17 0 0.0 0.0 0.00 0.00 0.00 92 1010.8
20260510040006 17 0 0.0 0.0 0.00 0.00 0.00 92 1010.8
20260510034506 17 0 0.0 0.0 0.00 0.00 0.00 92 1010.7
20260510033026 17 0 0.0 0.0 0.00 0.00 0.00 91 1010.6
20260510031504 17 0 0.0 0.0 0.00 0.00 0.00 91 1010.4
20260510030005 17 0 0.0 0.0 0.00 0.00 0.00 90 1010.5
20260510024505 17 0 0.0 0.0 0.00 0.00 0.00 90 1010.4
20260510023005 17 0 0.0 0.0 0.00 0.00 0.00 90 1010.3
20260510021506 17 0 0.0 0.0 0.00 0.00 0.00 89 1010.4
20260510020005 18 0 0.0 0.0 0.00 0.00 0.00 89 1010.3
20260510014505 18 0 0.0 0.0 0.00 0.00 0.00 88 1010.2
20260510013005 18 0 0.0 0.0 0.00 0.00 0.00 87 1010.2
20260510011505 18 0 0.0 0.0 0.00 0.00 0.00 86 1010.3
20260510010005 19 0 0.0 0.0 0.00 0.00 0.00 85 1010.1
20260510004505 20 0 0.0 0.0 0.00 0.00 0.00 83 1009.9
20260510003005 20 0 0.0 0.0 0.00 0.00 0.00 82 1009.5
20260510001504 20 0 0.0 0.0 0.00 0.00 0.00 81 1009.6
20260510000005 21 0 0.0 0.0 0.00 0.00 0.00 79 1009.6
20260509234505 21 0 0.0 0.0 0.00 0.00 0.00 77 1009.4
20260509233005 22 0 0.0 0.0 0.00 0.00 0.00 75 1009.2
20260509231504 22 0 0.0 0.0 0.00 0.00 0.00 74 1009.3
20260509230004 22 163 0.0 1.6 0.00 0.00 0.00 72 1009.3
20260509224525 23 135 0.0 1.6 0.00 0.00 0.00 70 1009.2
20260509223005 23 166 1.6 8.0 0.00 0.00 0.00 69 1009.3
20260509221526 23 136 0.0 4.8 0.00 0.00 0.00 68 1009.2
20260509220005 23 239 0.0 1.6 0.00 0.00 0.00 66 1009.2
20260509214504 23 219 0.0 1.6 0.00 0.00 0.00 66 1009.1
20260509213005 23 279 0.0 4.8 0.00 0.00 0.00 65 1008.9
20260509211504 23 146 0.0 4.8 0.00 0.00 0.00 64 1009.0
20260509210005 23 215 0.0 4.8 0.00 0.00 0.00 64 1009.0
20260509204505 23 266 0.0 4.8 0.00 0.00 0.00 63 1009.1
20260509203006 24 234 1.6 4.8 0.00 0.00 0.00 60 1009.2
20260509201526 25 208 1.6 11.3 0.00 0.00 0.00 58 1009.1
20260509200005 26 151 1.6 9.7 0.00 0.00 0.00 58 1009.0
20260509194504 25 232 1.6 9.7 0.00 0.00 0.00 56 1009.2
20260509193004 24 165 1.6 8.0 0.00 0.00 0.00 57 1009.2
20260509191505 25 209 1.6 12.9 0.00 0.00 0.00 55 1009.7
20260509190005 25 156 1.6 12.9 0.00 0.00 0.00 53 1009.8
20260509184504 25 173 1.6 14.5 0.00 0.00 0.00 51 1009.9
20260509183004 25 168 1.6 8.0 0.00 0.00 0.00 51 1010.0
20260509181504 24 167 3.2 12.9 0.00 0.00 0.00 51 1010.0
20260509180005 24 192 3.2 16.1 0.00 0.00 0.00 52 1009.9
20260509174505 24 198 1.6 11.3 0.00 0.00 0.00 51 1010.0
20260509173025 24 226 3.2 14.5 0.00 0.00 0.00 51 1010.2
20260509171504 24 186 3.2 14.5 0.00 0.00 0.00 53 1010.6
20260509170004 23 177 1.6 14.5 0.00 0.00 0.00 55 1010.6
20260509164504 23 202 1.6 12.9 0.00 0.00 0.00 58 1010.4
20260509163004 23 197 3.2 14.5 0.00 0.00 0.00 59 1010.7
20260509161504 23 236 1.6 9.7 0.00 0.00 0.00 63 1010.5
20260509160005 23 213 1.6 8.0 0.00 0.00 0.00 69 1011.0
20260509154505 22 213 1.6 9.7 0.00 0.00 0.00 71 1011.8
20260509153004 22 211 1.6 6.4 0.00 0.00 0.00 74 1012.1
20260509151504 22 182 1.6 4.8 0.00 0.00 0.00 76 1012.5
20260509150004 22 170 1.6 6.4 0.00 0.00 0.00 78 1012.6
20260509144503 22 251 1.6 6.4 0.00 0.00 0.00 76 1012.8
20260509143003 22 247 1.6 6.4 0.00 0.00 0.00 77 1012.7